Location: Black River Observatory
(43.1000°N, 82.6200°W)
Time: 11:09:55
(UTC-04:00)

Daily predictions for brighter satellites

Satellite Brightness Start Highest point End
(mag) Time Altitude Azimuth Time Altitude Azimuth Time Altitude Azimuth
CZ-2D R/B 3.3 20:46:46 10° SSE 20:50:38 67° ENE 20:54:31 10° N
Cosmos 1331 Rocket 4.2 20:45:34 10° SSW 20:50:52 81° WNW 20:56:13 10° NNE
Nadezhda 4 Rocket 4.1 20:46:55 10° N 20:53:13 90° ESE 20:59:31 10° S
SL-16 R/B 3.0 20:50:09 10° SSE 20:54:58 30° ESE 20:59:48 10° NE
ATLAS 5 CENTAUR R/B 3.7 20:55:26 10° NNW 21:00:16 26° NE 21:05:28 10° E
Cosmos 1634 Rocket 4.2 20:56:31 10° SSE 21:02:37 56° E 21:08:47 10° NNE
Cosmos 1092 Rocket 4.1 20:56:35 10° N 21:02:57 78° E 21:09:18 10° SSE
Helios 1B rocket 2.9 21:00:12 10° NNE 21:04:03 38° E 21:07:53 10° SSE
Cosmos 1707 Rocket 3.5 21:00:15 10° S 21:04:40 72° E 21:09:05 10° NNE
Lacrosse 4 Rocket 2.2 21:00:41 10° NNW 21:04:44 39° NE 21:08:46 10° SE
ERS-1 Rocket 4.2 21:02:28 10° ESE 21:06:27 25° ENE 21:10:29 10° N
USA 186 1.3 21:04:11 10° SSE 21:06:52 77° ENE 21:09:45 10° N
ERBS 2.4 21:06:08 10° NW 21:09:36 76° NE 21:12:44 12° SE
Cosmos 1733 Rocket 4.0 21:06:25 10° NNE 21:10:23 31° ENE 21:14:14 11° SE
ALOS 4.1 21:06:25 10° SSW 21:10:38 33° W 21:14:53 10° NNW
Cosmos 1486 Rocket 4.1 21:06:55 10° NNW 21:12:10 81° WSW 21:17:24 10° SSE
SAR-Lupe-4 3.7 21:08:51 10° SSE 21:12:22 57° ENE 21:15:54 10° N
Cosmos 1939 Rocket 3.5 21:08:49 10° SE 21:12:36 39° ENE 21:16:22 10° N
CENTAUR R/B 3.6 21:06:51 10° WSW 21:12:49 50° NW 21:19:37 10° NNE
Cosmos 1862 Rocket 4.5 21:14:03 10° SSE 21:17:54 29° E 21:21:47 10° NNE
SeaSat 1 4.0 21:17:14 10° E 21:20:51 21° NE 21:24:30 10° N
Cosmos 1869 Rocket 4.3 21:17:15 10° NNW 21:21:40 57° W 21:26:02 10° S
Resurs 1-3 4.5 21:17:59 10° S 21:22:14 50° W 21:26:32 10° NNW
Cosmos 2227 4.5 21:16:43 10° NNW 21:22:28 73° WSW 21:28:08 10° SSE
Cosmos 1408 2.7 21:20:22 10° N 21:24:01 56° E 21:27:28 11° SSE
Cosmos 1992 Rocket 4.5 21:19:45 10° SSE 21:24:32 37° ESE 21:29:21 10° NE
Atlas Centaur 2 4.0 21:22:12 10° SSW 21:27:30 22° SSE 21:31:33 15° ESE
SAR-Lupe-1 4.0 21:26:17 10° SSE 21:29:51 81° ENE 21:33:27 10° NNW
Molniya-1 3.5 21:29:40 10° SW 21:31:23 50° NW 21:33:41 10° NNE
Abrixas rocket 2.7 21:28:48 10° WSW 21:32:03 59° NNW 21:35:18 10° ENE
Cosmos 2242 Rocket 3.5 21:31:43 10° S 21:36:14 76° E 21:40:43 10° NNE
Cosmos 1627 Rocket 4.5 21:30:54 10° N 21:37:09 88° W 21:43:17 10° S
Cosmos 1455 4.0 21:34:12 10° SW 21:37:40 34° WNW 21:41:09 10° N
Helios 1A 3.5 21:37:37 10° S 21:41:48 60° W 21:46:01 10° NNW
Cosmos 1503 Rocket 4.0 21:38:15 10° NNW 21:43:33 83° WSW 21:48:10 13° SSE
Cosmos 2279 Rocket 4.0 21:37:39 10° S 21:43:51 69° E 21:50:03 10° NNE
Cosmos 1354 Rocket 4.1 21:42:13 10° NNW 21:47:31 76° WSW 21:52:09 13° SSE
Cosmos 1867 4.4 21:43:55 10° NNW 21:49:01 37° NE 21:52:05 21° ESE
Cosmos 1869 4.3 21:46:48 10° SSW 21:50:36 46° WNW 21:54:26 10° N
USA 267 4.5 21:45:14 10° NE 21:51:19 43° NNW 21:57:24 10° W
Resurs 01 Rocket 4.1 21:50:11 10° SW 21:53:34 21° W 21:57:00 10° NW
H-2A R/B 3.4 21:52:49 18° E 21:54:33 22° ENE 21:58:15 10° NNE
OAO 3 Rocket 4.1 21:50:37 10° WSW 21:54:59 32° S 21:56:38 26° SE
CZ-4B DEB 3.9 21:54:21 13° SSW 21:56:50 40° W 21:59:44 10° NNW
YAOGAN 6 2.5 21:56:56 27° SSE 21:58:50 81° ENE 22:02:28 10° N
Cosmos 1428 Rocket 4.4 21:53:29 10° N 21:59:38 86° E 22:04:53 15° S
Meteor 1-29 3.9 21:57:13 10° N 22:00:36 49° WNW 22:03:56 10° SSW
Cosmos 968 Rocket 3.9 21:59:36 10° N 22:04:38 48° ENE 22:06:50 30° ESE
Cosmos 2263 Rocket 2.1 21:59:34 10° NNW 22:05:10 86° ENE 22:08:25 26° SSE
Cosmos 2180 Rocket 4.5 21:59:38 10° S 22:06:02 84° E 22:12:23 10° N
SPOT 5 3.3 22:04:11 30° ESE 22:06:03 43° ENE 22:10:30 10° N
COSMOS 2428 4.0 22:10:12 21° E 22:10:12 21° E 22:13:38 10° NE
Meteor 2-10 Rocket 3.8 22:05:37 15° S 22:10:27 64° E 22:16:12 10° NNE
Cosmos 2322 Rocket 2.5 22:05:25 10° SW 22:10:59 67° WNW 22:16:37 10° NNE
Envisat 4.0 22:06:32 10° S 22:11:20 43° W 22:16:11 10° NNW
Sich 1 Rocket 3.6 22:10:32 10° N 22:14:59 66° E 22:16:31 39° SSE
Cosmos 1933 3.6 22:11:30 12° SSW 22:15:09 70° W 22:19:11 10° N
Cosmos 2360 Rocket 2.2 22:15:49 10° S 22:21:20 60° ESE 22:26:55 10° NNE
BREEZE-M DEB (TANK) 4.2 22:19:46 10° W 22:23:31 68° N 22:35:57 10° E
Cosmos 1825 4.2 22:20:46 10° NNW 22:23:55 25° W 22:27:05 10° SSW
H-2A R/B 3.5 22:23:59 22° ENE 22:24:08 22° ENE 22:27:29 10° NNE
USA 234 3.9 22:22:52 24° SSE 22:26:38 47° SW 22:32:57 10° WNW
Cosmos 1908 Rocket 3.4 22:23:12 10° N 22:27:34 89° E 22:28:49 46° S
Cosmos 2322 3.7 22:25:27 21° S 22:29:12 60° ESE 22:34:50 10° NNE
NOAA 11 4.2 22:28:04 32° SSE 22:30:45 86° WSW 22:36:17 10° NNW
USA 245 4.1 22:30:44 37° SSE 22:33:11 78° ENE 22:38:21 10° N
SL-16 R/B 3.4 22:33:31 10° SW 22:38:52 42° WNW 22:44:16 10° NNE
Cosmos 1782 Rocket 3.4 22:37:14 10° N 22:41:37 74° E 22:41:59 68° SE
SPOT 1/Viking Rocket 3.5 22:40:22 50° SE 22:41:38 68° ENE 22:46:49 10° N
Lacrosse 4 Rocket 3.5 22:39:52 10° WNW 22:43:13 22° WSW 22:45:08 17° SW
MetOp-B 4.3 22:42:09 34° S 22:44:27 67° WSW 22:49:48 10° NNW
Okean 2 Rocket 3.2 22:40:25 10° N 22:44:54 58° E 22:44:59 57° E
ERS-1 Rocket 3.9 22:42:10 22° SSW 22:45:00 42° W 22:49:47 10° NNW
ATLAS 5 CENTAUR R/B 2.4 22:39:34 10° NW 22:45:35 79° SW 22:47:45 44° SSE
Cosmos 2333 Rocket 4.0 22:52:12 17° ENE 22:52:12 17° ENE 22:54:05 10° NE
Cosmos 1782 4.0 22:53:34 32° NE 22:53:34 32° NE 22:56:02 10° NNE
Milstar 3 4.2 22:48:43 10° WSW 22:53:09 18° SSW 22:53:09 18° SSW
Landsat 7 3.9 22:54:27 58° E 22:54:38 58° ENE 22:59:19 10° N
ARGOS 3.2 22:52:58 44° S 22:54:39 71° WSW 23:00:02 10° NNW
Cosmos 2237 Rocket 4.3 22:59:46 13° ENE 22:59:46 13° ENE 23:00:35 10° ENE
SeaSat 1 2.6 22:57:02 53° SSW 22:57:57 65° WSW 23:02:52 10° NNW
Cosmos 2278 Rocket 3.6 22:54:24 10° N 22:59:03 25° NE 23:00:07 24° ENE
Cosmos 1777 Rocket 3.8 23:00:56 10° NNW 23:06:15 83° ENE 23:06:40 75° SE
Okean 1-7 3.2 23:07:56 70° W 23:08:03 70° W 23:12:28 10° N
Cosmos 1844 Rocket 2.7 23:03:01 10° NNW 23:08:35 63° ENE 23:09:04 60° E
Abrixas rocket 4.2 23:06:15 10° WNW 23:08:39 28° NNW 23:08:39 28° NNW
Terra 2.1 23:10:04 56° NE 23:10:04 56° NE 23:14:27 10° N
SL-08 RB Rocket 4.1 23:09:48 54° WSW 23:10:14 56° W 23:14:45 10° NNW
Meteor 1-27 Rocket 4.5 23:12:59 37° ENE 23:12:59 37° ENE 23:17:20 10° NNE
USA 229 DEB 3.6 23:05:28 10° SW 23:12:18 90° SE 23:19:18 10° NE
USA 229 3.6 23:05:34 10° SSW 23:12:24 89° SE 23:19:23 10° NE
Atlas Centaur 2 3.9 23:09:23 10° SW 23:14:12 29° SSW 23:14:12 29° SSW
Cosmos 2151 Rocket 4.2 23:13:55 10° N 23:17:24 49° NNE 23:17:24 49° NNE
Cosmos 2221 Rocket 4.5 23:21:33 42° W 23:22:05 44° WNW 23:26:21 10° N
SL-19 R/B 4.3 23:17:55 10° NNE 23:24:02 71° ESE 23:24:12 70° ESE
Cosmos 2219 Rocket 2.9 23:28:37 41° ENE 23:28:37 41° ENE 23:32:34 10° NNE
CZ-4C R/B 3.5 23:23:12 10° NNW 23:29:53 45° NE 23:32:09 36° E
Meteor 1-10 Rocket 4.2 23:29:38 73° SSW 23:30:15 86° W 23:36:11 10° N
DMSP B5D2-2 4.0 23:25:56 10° NNE 23:31:12 86° WNW 23:31:12 86° WNW
CARTOSAT-1 4.2 23:32:33 53° NNW 23:32:33 53° NNW 23:35:55 10° NNW
Cosmos 1867 4.5 23:27:36 10° NW 23:32:35 37° WSW 23:32:45 37° WSW
Meteor 1-11 Rocket 3.8 23:28:01 10° N 23:33:08 61° NE 23:33:08 61° NE
H-2A R/B 2.5 23:33:27 48° WSW 23:33:39 48° W 23:38:27 10° NNW
ASTEX 1 3.7 23:43:30 66° NW 23:43:30 66° NW 23:47:57 10° N
Cosmos 1553 Rocket 3.8 23:48:00 85° SE 23:48:08 87° E 23:54:24 10° N
Geosat 4.3 23:45:34 10° NNE 23:50:29 62° NW 23:50:29 62° NW
H-2A R/B 4.4 23:14:24 10° W 23:50:43 35° SSW 23:51:34 35° SSW
SL-08 R/B 4.3 23:46:50 10° N 23:53:01 83° W 23:53:02 83° W
COSMOS 2428 3.2 23:52:07 49° WSW 23:53:13 57° WNW 23:58:51 10° NNE
